CDT,Max TemperatureF,Mean TemperatureF,Min TemperatureF,Max Dew PointF,MeanDew PointF,Min DewpointF,Max Humidity, Mean Humidity, Min Humidity, Max Sea Level PressureIn, Mean Sea Level PressureIn, Min Sea Level PressureIn, Max VisibilityMiles, Mean VisibilityMiles, Min VisibilityMiles, Max Wind SpeedMPH, Mean Wind SpeedMPH, Max Gust SpeedMPH,PrecipitationIn, CloudCover, Events, WindDirDegrees
2013-10-1,66,58,50,52,42,36,88,59,32,29.84,29.64,29.43,10,10,10,29,12,44,0.06,1,Rain,245
2013-10-2,59,50,41,48,41,36,87,71,48,30.01,29.94,29.84,10,10,1,12,7,,0.00,3,Rain,217
2013-10-3,57,45,33,48,40,28,87,79,63,30.16,30.04,29.98,10,7,0,12,1,17,0.00,2,Fog,341
2013-10-4,48,44,39,43,36,34,87,76,66,30.28,30.23,30.16,10,10,10,18,12,22,0.01,4,Rain,20
2013-10-5,46,44,41,41,39,36,87,81,76,30.18,30.03,29.93,10,9,3,21,12,26,0.34,8,Rain,38
2013-10-6,60,48,35,45,39,32,87,70,45,29.93,29.84,29.78,10,10,10,14,7,17,0.00,2,,302
2013-10-7,60,48,37,45,38,34,87,70,42,29.93,29.87,29.80,10,10,10,12,6,16,0.00,0,,265
2013-10-8,71,58,44,52,46,39,87,67,46,29.79,29.67,29.58,10,10,10,17,9,21,0.00,0,,191
2013-10-9,69,53,37,48,42,34,87,70,38,30.02,29.93,29.75,10,10,2,8,3,,0.00,0,,259
2013-10-10,69,56,44,55,50,41,87,77,60,30.01,29.87,29.75,10,8,2,15,4,,0.00,1,,97
2013-10-11,71,64,57,55,53,52,88,70,53,29.75,29.61,29.36,10,10,7,34,15,43,0.07,1,Rain,135
2013-10-12,59,50,39,54,43,34,87,81,71,30.11,29.68,29.37,10,8,2,25,18,37,0.05,7,Rain,257
2013-10-13,55,44,33,37,33,28,87,71,41,30.38,30.28,30.12,10,10,10,14,6,20,0.00,0,,250
2013-10-14,48,39,30,43,36,27,87,83,76,30.38,30.31,30.21,10,10,7,8,2,,0.08,5,Rain,89
2013-10-15,50,42,33,43,37,28,87,79,66,30.22,30.07,29.98,10,10,7,15,8,20,0.19,4,Rain,3
2013-10-16,57,42,26,43,34,23,87,73,51,29.98,29.84,29.77,10,10,10,17,6,20,0.06,0,,232
2013-10-17,48,39,30,39,35,25,87,74,57,29.91,29.87,29.79,10,10,7,13,7,,0.01,5,Rain,321
2013-10-18,48,39,28,36,30,25,87,76,43,29.90,29.83,29.71,10,10,1,13,5,17,0.00,5,Rain,249
2013-10-19,42,35,28,36,30,25,87,82,70,29.73,29.70,29.66,10,8,2,9,4,,0.00,4,Snow,251
2013-10-20,39,34,28,34,28,23,87,77,60,29.87,29.76,29.68,10,8,3,17,4,24,0.00,7,Rain-Snow,311
2013-10-21,39,34,28,30,27,21,86,80,70,29.95,29.87,29.82,10,9,2,18,11,23,0.00,8,Snow,304
2013-10-22,37,34,30,32,28,25,81,78,70,30.03,30.00,29.95,10,10,7,14,6,20,0.00,7,Snow,301
2013-10-23,37,32,26,28,25,19,87,73,60,30.10,30.04,29.99,10,10,10,15,7,20,0.00,8,,302
2013-10-24,41,34,28,32,29,23,87,76,61,30.22,30.17,30.09,10,10,5,16,8,21,0.00,7,,286
2013-10-25,53,38,24,37,30,21,86,72,54,30.20,29.86,29.61,10,10,10,26,13,36,0.00,3,,243
2013-10-26,42,38,35,30,29,27,81,68,53,30.11,29.99,29.83,10,10,10,20,13,24,0.00,6,,297
2013-10-27,42,33,24,32,26,18,86,72,57,30.38,29.96,29.67,10,10,3,20,12,26,0.00,3,Snow,353
2013-10-28,32,24,17,18,15,12,86,68,44,30.59,30.51,30.40,10,10,10,9,7,,0.00,3,,9
2013-10-29,37,22,8,21,16,5,86,70,45,30.49,30.29,30.11,10,10,10,8,2,,0.00,0,,221
2013-10-30,41,31,21,34,28,16,87,77,65,30.11,29.89,29.66,10,9,3,12,4,,0.00,6,,187
2013-10-31,46,39,30,37,34,27,87,80,66,29.65,29.48,29.40,10,8,4,8,5,,0.00,5,,243